• In Latvia
  • List of Countries
  • For 7 days
  • Water Temperature
  • Satellite Maps
  • Weather Map
  • Weather Widgets
  • user-avatar
    Login

    Hourly Weather Djelfa

    Today, 24 June, Saturday

    Time Temperature Precipitation Wind Pressure Humidity
    00:00 +25°C° 0 mm 1 mps 670 mmHg 30%
    01:00 +25°C° 0 mm 1 mps 669 mmHg 33%
    02:00 +24°C° 0 mm 1 mps 669 mmHg 36%
    03:00 +21°C° 0 mm 0 mps 669 mmHg 38%
    04:00 +24°C° 0 mm 1 mps 669 mmHg 37%
    05:00 +24°C° 0 mm 1 mps 669 mmHg 36%
    06:00 +24°C° 0 mm 1 mps 670 mmHg 35%
    07:00 +26°C° 0 mm 1 mps 670 mmHg 31%
    08:00 +27°C° 0 mm 1 mps 670 mmHg 26%
    09:00 +29°C° 0 mm 1 mps 671 mmHg 21%
    10:00 +30°C° 0 mm 1 mps 671 mmHg 19%
    11:00 +31°C° 0 mm 2 mps 671 mmHg 16%
    12:00 +32°C° 0 mm 2 mps 670 mmHg 13%
    13:00 +34°C° 0 mm 2 mps 670 mmHg 12%
    14:00 +34°C° 0 mm 2 mps 670 mmHg 11%
    15:00 +35°C° 0 mm 2 mps 670 mmHg 10%
    16:00 +34°C° 0 mm 2 mps 669 mmHg 10%
    17:00 +34°C° 0 mm 2 mps 669 mmHg 10%
    18:00 +34°C° 0 mm 2 mps 669 mmHg 10%
    19:00 +32°C° 0 mm 2 mps 669 mmHg 11%
    20:00 +31°C° 0 mm 2 mps 669 mmHg 13%
    21:00 +30°C° 0 mm 2 mps 669 mmHg 14%
    22:00 +29°C° 0 mm 2 mps 669 mmHg 17%
    23:00 +28°C° 0 mm 2 mps 668 mmHg 20%

    Tomorrow, 25 June, Sunday

    Time Temperature Precipitation Wind Pressure Humidity
    00:00 +27°C° 0 mm 2 mps 668 mmHg 23%
    01:00 +26°C° 0 mm 2 mps 668 mmHg 25%
    02:00 +26°C° 0 mm 2 mps 668 mmHg 28%
    03:00 +25°C° 0 mm 2 mps 667 mmHg 30%
    04:00 +25°C° 0 mm 3 mps 667 mmHg 31%
    05:00 +25°C° 0 mm 3 mps 667 mmHg 32%
    06:00 +26°C° 0 mm 3 mps 668 mmHg 32%
    07:00 +27°C° 0 mm 3 mps 668 mmHg 28%
    08:00 +29°C° 0 mm 4 mps 669 mmHg 24%
    09:00 +32°C° 0 mm 4 mps 669 mmHg 20%
    10:00 +33°C° 0 mm 4 mps 669 mmHg 18%
    11:00 +34°C° 0 mm 3 mps 669 mmHg 16%
    12:00 +35°C° 0 mm 2 mps 669 mmHg 14%
    13:00 +36°C° 0 mm 2 mps 668 mmHg 13%
    14:00 +36°C° 0 mm 2 mps 668 mmHg 12%
    15:00 +36°C° 0 mm 1 mps 667 mmHg 11%
    16:00 +37°C° 0 mm 2 mps 667 mmHg 11%
    17:00 +36°C° 0 mm 2 mps 667 mmHg 12%
    18:00 +36°C° 0 mm 2 mps 667 mmHg 12%
    19:00 +35°C° 0 mm 3 mps 667 mmHg 13%
    20:00 +34°C° 0 mm 4 mps 667 mmHg 15%
    21:00 +33°C° 0 mm 4 mps 667 mmHg 17%
    22:00 +32°C° 0 mm 5 mps 667 mmHg 18%
    23:00 +30°C° 0 mm 5 mps 667 mmHg 19%

    Day after tomorrow, 26 June, Monday

    Time Temperature Precipitation Wind Pressure Humidity
    00:00 +29°C° 0 mm 5 mps 667 mmHg 20%
    01:00 +29°C° 0 mm 5 mps 666 mmHg 21%
    02:00 +28°C° 0 mm 5 mps 666 mmHg 22%
    03:00 +27°C° 0 mm 5 mps 666 mmHg 23%
    04:00 +27°C° 0 mm 5 mps 666 mmHg 24%
    05:00 +27°C° 0 mm 4 mps 666 mmHg 24%
    06:00 +27°C° 0 mm 4 mps 666 mmHg 24%
    07:00 +29°C° 0 mm 5 mps 667 mmHg 21%
    08:00 +32°C° 0 mm 6 mps 667 mmHg 18%
    09:00 +34°C° 0 mm 6 mps 668 mmHg 16%
    10:00 +35°C° 0 mm 6 mps 668 mmHg 15%
    11:00 +36°C° 0 mm 5 mps 668 mmHg 13%
    12:00 +38°C° 0 mm 4 mps 668 mmHg 12%
    13:00 +38°C° 0 mm 4 mps 667 mmHg 12%
    14:00 +38°C° 0 mm 3 mps 667 mmHg 12%
    15:00 +38°C° 0 mm 3 mps 667 mmHg 12%
    16:00 +38°C° 0 mm 3 mps 666 mmHg 13%
    17:00 +37°C° 0 mm 4 mps 666 mmHg 14%
    18:00 +37°C° 0 mm 4 mps 666 mmHg 15%
    19:00 +35°C° 0 mm 5 mps 666 mmHg 19%
    20:00 +34°C° 0 mm 5 mps 667 mmHg 22%
    21:00 +32°C° 0 mm 6 mps 667 mmHg 26%
    22:00 +32°C° 0 mm 4 mps 667 mmHg 26%
    23:00 +31°C° 0 mm 3 mps 667 mmHg 25%

    27 June, Tuesday

    Time Temperature Precipitation Wind Pressure Humidity
    00:00 +31°C° 0 mm 1 mps 667 mmHg 25%
    01:00 +30°C° 0 mm 1 mps 666 mmHg 26%
    02:00 +29°C° 0 mm 2 mps 666 mmHg 28%
    03:00 +28°C° 0 mm 2 mps 665 mmHg 29%
    04:00 +29°C° 0 mm 1 mps 666 mmHg 28%
    05:00 +29°C° 0 mm 1 mps 666 mmHg 27%
    06:00 +30°C° 0 mm 1 mps 666 mmHg 27%
    07:00 +31°C° 0 mm 1 mps 667 mmHg 23%
    08:00 +34°C° 0 mm 2 mps 667 mmHg 20%
    09:00 +36°C° 0 mm 2 mps 667 mmHg 17%
    10:00 +37°C° 0 mm 2 mps 667 mmHg 15%
    11:00 +38°C° 0 mm 2 mps 667 mmHg 14%
    12:00 +39°C° 0 mm 3 mps 667 mmHg 13%
    13:00 +38°C° 0.1 mm 3 mps 667 mmHg 13%
    14:00 +38°C° 0.1 mm 3 mps 667 mmHg 13%
    15:00 +38°C° 0.1 mm 4 mps 666 mmHg 14%
    16:00 +37°C° 0 mm 4 mps 666 mmHg 14%
    17:00 +37°C° 0 mm 3 mps 666 mmHg 15%
    18:00 +36°C° 0 mm 3 mps 666 mmHg 15%
    19:00 +35°C° 0 mm 4 mps 666 mmHg 16%
    20:00 +35°C° 0 mm 4 mps 666 mmHg 17%
    21:00 +34°C° 0 mm 4 mps 666 mmHg 18%
    22:00 +33°C° 0 mm 4 mps 666 mmHg 18%
    23:00 +32°C° 0 mm 5 mps 666 mmHg 19%

    28 June, Wednesday

    Time Temperature Precipitation Wind Pressure Humidity
    00:00 +32°C° 0 mm 5 mps 665 mmHg 19%
    01:00 +30°C° 0 mm 4 mps 665 mmHg 20%
    02:00 +29°C° 0 mm 4 mps 665 mmHg 21%
    03:00 +28°C° 0 mm 4 mps 664 mmHg 22%
    04:00 +28°C° 0 mm 4 mps 664 mmHg 21%
    05:00 +29°C° 0 mm 3 mps 664 mmHg 21%
    06:00 +29°C° 0 mm 3 mps 665 mmHg 21%
    07:00 +32°C° 0 mm 5 mps 665 mmHg 18%
    08:00 +34°C° 0 mm 7 mps 666 mmHg 16%
    09:00 +37°C° 0 mm 9 mps 666 mmHg 13%
    10:00 +37°C° 0 mm 9 mps 666 mmHg 12%
    11:00 +38°C° 0 mm 10 mps 665 mmHg 11%
    12:00 +39°C° 0 mm 11 mps 665 mmHg 10%
    13:00 +39°C° 0 mm 11 mps 665 mmHg 10%
    14:00 +41°C° 0 mm 11 mps 664 mmHg 10%
    15:00 +41°C° 0 mm 11 mps 664 mmHg 9%
    16:00 +39°C° 0 mm 11 mps 664 mmHg 10%
    17:00 +38°C° 0 mm 10 mps 664 mmHg 10%
    18:00 +38°C° 0 mm 9 mps 663 mmHg 11%
    19:00 +34°C° 0 mm 8 mps 663 mmHg 17%
    20:00 +32°C° 0 mm 7 mps 663 mmHg 23%
    21:00 +28°C° 0 mm 6 mps 663 mmHg 30%
    22:00 +27°C° 0 mm 6 mps 663 mmHg 33%
    23:00 +24°C° 0 mm 7 mps 663 mmHg 36%

    29 June, Thursday

    Time Temperature Precipitation Wind Pressure Humidity
    00:00 +22°C° 0 mm 7 mps 662 mmHg 39%
    01:00 +22°C° 0 mm 7 mps 662 mmHg 41%
    02:00 +21°C° 0 mm 7 mps 662 mmHg 42%
    03:00 +20°C° 0 mm 6 mps 662 mmHg 44%
    04:00 +20°C° 0 mm 6 mps 662 mmHg 46%
    05:00 +20°C° 0 mm 7 mps 663 mmHg 49%
    06:00 +20°C° 0 mm 7 mps 663 mmHg 51%
    07:00 +21°C° 0 mm 7 mps 663 mmHg 45%
    08:00 +22°C° 0 mm 7 mps 664 mmHg 40%
    09:00 +24°C° 0 mm 6 mps 664 mmHg 34%
    10:00 +26°C° 0 mm 6 mps 664 mmHg 29%
    11:00 +28°C° 0 mm 5 mps 664 mmHg 24%
    12:00 +30°C° 0 mm 4 mps 665 mmHg 19%
    13:00 +32°C° 0 mm 4 mps 664 mmHg 17%
    14:00 +32°C° 0 mm 4 mps 664 mmHg 16%
    15:00 +33°C° 0 mm 4 mps 664 mmHg 14%
    16:00 +33°C° 0 mm 4 mps 664 mmHg 14%
    17:00 +33°C° 0 mm 4 mps 664 mmHg 14%
    18:00 +33°C° 0 mm 4 mps 664 mmHg 14%
    19:00 +30°C° 0 mm 4 mps 664 mmHg 20%
    20:00 +28°C° 0 mm 5 mps 664 mmHg 26%
    21:00 +26°C° 0 mm 6 mps 664 mmHg 33%
    22:00 +24°C° 0 mm 6 mps 664 mmHg 36%
    23:00 +22°C° 0 mm 6 mps 664 mmHg 39%
    Show more